Погода в Магнитогорске

Погода в Магнитогорске : погода сейчас, прогноз погоды и архив. Всё, что Вы хотите узнать о погоде в Магнитогорске!

Хотите узнать прогноз погоды в Магнитогорске? Тогда Вам сюда: Погода в Магнитогорске

Поиск расширенной информации на нашем сайте:

Другие новости

Новости СМИ2

Главная страница сайта

Новости сайта

03.07.2017

Напоминаем, что на нашем специализированном сайте Метеоцентр.Азия вы можете получить высокодетализированные автоматические прогнозы погоды по пунктам России, СНГ и мира в авиационном формате (включающие направление и скорость ветра, видимость, явления погоды, количество и форму облачности, нижнюю и верхнюю границу облачности).


Погода в Магнитогорске - сегодня

Время (UTC), дата Ветер
(°,м/с) 
Видим.   Явления Облачность Т
(°С)
Тd
(°С)
f(%) Тe
(°С)
Pmin
(гПа)
dP
(гПа)
Po
(мм)
O2
(г/м3)
Тmin Tmax R s Состояние
почвы
18 19.08.17 010 (С) 10 км    ясно 
+17.4 +10.4 63 +20  1024.3  735  276           
21 19.08.17 330 (СЗ) 10 км    ясно 
+14.2 +6.6 60 +15  1025.4  0.6  735  280           
00 20.08.17 330 (СЗ) 10 км    ясно 
+9.4 +6.5 82 +10  1026.4  0.2  735  285           
03 20.08.17 тихо ()   20000 м    6/0 верхняя 
[Ci fib]
+13.8 +9.3 74 +14  1026  0.3  735  280  +7        сухая 
06 20.08.17 090 (В) 20000 м    8/0 верхняя 
[Ci fib]
+21.4 +6.1 37 +21  1024.6  -0.2  735  274           
09 20.08.17 040 (СВ) 20000 м    8/0 средняя 
[Ac lent]
+24 +6.5 32 +24  1022.9  -1.3  734  271           
12 20.08.17 360 (С) 20000 м    4/0 верхняя 
[Ci sp]
+25.6 +5.1 27 +26  1021.7  -0.9  734  269           
15 20.08.17 020 (С) 20000 м    6/0 средняя 
[Ac trans]
+20 +6.5 41 +20  1022.3  -0.2  733  274    +25.7       
18 20.08.17 020 (С) 10 км    8/0 средняя 
[Ac trans]
+16.1 +7.6 57 +16  1023.5  0.6  734  278           
21 20.08.17 320 (СЗ) 10 км    4/0 средняя 
[Ac trans]
+15.4 +8.1 62 +17  1023.5  0.1  734  278           
00 21.08.17 тихо ()   10 км    ясно 
+10.7 +8.3 85 +11  1024.3  0.1  734  283           
03 21.08.17 030 (СВ) 4000 м  дымка  3/0 средняя 
[Ac trans]
+14.9 +11.2 79 +19  1024.1  0.6  734  278  +10.1        сухая 
06 21.08.17 060 (СВ) 20000 м    ясно 
+23.7 +7.7 36 +24  1022.4  -0.4  734  271           
09 21.08.17 060 (СВ) 20000 м    6/6 600 м 
[Cu hum]
+26.2 +7.1 30 +26  1021.1  -0.9  733  268           
12 21.08.17 040 (СВ) 20000 м    8/8 600 м 
[Cu med, cong]
+24.4 +9 38 +25  1020.9  -0.4  733  270           
15 21.08.17 040 (СВ) 20000 м    ясно 
+21 +11 53 +24  1021.3  0.1  733  272    +26.5       
18 21.08.17 020 (С) 10 км    ясно 
+16 +9.9 67 +17  1023.1  0.9  734  277           
21 21.08.17 020 (С) 10 км    ясно 
+14.9 +10 72 +17  1023.8  0.5  734  279           
00 22.08.17 350 (С) 10 км    ясно 
+13.4 +10.1 80 +16  1024.6  0.5  734  280           
03 22.08.17 350 (С) 10 км  дымка  ясно 
+18 +12.3 69 +24  1025.1  1.2  735  276  +13.4        сухая 
06 22.08.17 050 (СВ) 20000 м    ясно 
+25.7 +6.5 29 +26  1024.4  0.4  736  270           
09 22.08.17 090 (В) 20000 м    ясно 
+27.9 +3.7 21 +28  1023.5  -0.6  735  268           
12 22.08.17 090 (В) 4{11}  20000 м    ясно 
+28.2 +3.7 21 +28  1022.9  -0.6  735  268           
15 22.08.17 050 (СВ) 20000 м    ясно 
+21.9 +6.6 37 +22  1024  0.2  735  273    +28.7       
18 22.08.17 020 (С) 10 км    ясно 
+16.6 +7 53 +17  1026.1  1.2  736  278           
Время (UTC), дата Ветер
(°,м/с) 
Видим.   Явления Облачность Т
(°С)
Тd
(°С)
f(%) Тe
(°С)
Pmin
(гПа)
dP
(гПа)
Po
(мм)
O2
(г/м3)
Тmin Tmax R s Состояние
почвы

Для получения пояснительной информации подведите курсор к названию столбца.

ПОГОДА в Магнитогорске - архив

Всё, что Вы хотите узнать о погоде в Магнитогорске - удобно и подробно!

Выберите нужную дату (начиная с 1 января 2015* года) и нажмите кнопку "Найти".
Будут отображены архивные сводки погоды по пункту Магнитогорск, начиная с указанной даты.


Отображать данные в формате CSV (для использования в таблицах Excel)


Внимание! Наш архив погоды предназначен исключительно для личного некоммерческого использования в познавательных целях. Если Вам необходимы официальные справки о состоянии погоды (для производственных, юридических, коммерческих и т.п. целей), обращайтесь в органы Росгидромета.

*Примечание: данная дата относится к архиву по метеостанциям СССР (Россия, СНГ, Балтия).
Архив по метеостанциям Зарубежной Европы и Азии (кроме Китая) хранится 10 дней, по другим регионам земного шара (Китай, Африка, Америка, Австралия, Океания) - 1 день.

Магнитогорск - район местоположения метеостанции


Название, широта, долгота, высота метеостанции:
Магнитогорск 53.3°ш. 59.1°д. 384 м над ур. моря [Российская Федерация]

Дополнительная информация

В oтличие oт бoльшинства пoгoдных сайтoв мы публикуем пoдрoбную метеoинфoрмацию в детальнoм прoфессиoнальнoм фoрмате.

Характеристики температуры и влажнoсти вoздуха измеряются на высoте 2 м в тени вдали oт зданий и деревьев.
Скoрoсть ветра измеряется на высoте 10 м (на урoвне рoста челoвека скoрoсть ветра ниже в 1.5-2 раза). Если метеoстанция нахoдится в гoрoде или в лесу, тo скoрoсть ветра занижена на 2-4 м/с пo сравнению с oткрытым местoм. Скoрoсть ветра над акватoриями крупных рек и oзёр, а также на вершинах хoлмoв на 2-5 м/с выше, чем в oбычных услoвиях.
Атмoсфернoе давление в разных тoчках местнoсти мoжет значительнo oтличаться oт давления на метеoстанции, в зависимoсти oт услoвий рельефа (при пoдъёме на 10 м давление пoнижается примернo на 1 мм рт.ст.).